Weather in Vorobjevka

Russia / Voronezh Oblast     50°38′43″N   40°55′34″E
temp.,
°C
wind,
m/s
gust,
m/s
humid.,
%
clouds,
%
prec.,
mm/h
press.,
hPa
HPBL,
m
26 february, fri
fri2600:00+1w51098100 0.1 1018284
03:00+1wnw51299100 0.4 1018305
06:00+2wnw51099100 0.0 1018236
09:00+2w41099100 0.2 1017211
12:00+2w612100100 0.0 1016293
15:00+3w71498100 0.0 1015397
18:00+2w81597100 0.1 1013473
21:00+2w61398100 0.3 1012363
27 february, sat
sat2700:00+2w61398100 0.1 1010412
03:00+1w61296100 0.1 1011411
06:00+1w51195100 0.0 1009405
09:00+1w61196100 0.0 1009486
12:00+2w61195100 0.0 1008569
15:00+2w71195100 0.1 1007747
18:00+1w6119395 0.1 1007553
21:00+1wnw6129796 0.2 1007567
28 february, sun
sun2800:000wnw61197100 0.3 1008666
03:00−5nnw698677 0.4 1011597
06:00−8nnw698397 0.0 1012619
09:00−8nnw698098 0.0 1015607
12:00−7nnw687685 0.0 1016642
15:00−6nnw587592 0.0 1017647
18:00−7nnw588191 0.0 1018624
21:00−7nnw588695 0.0 1020621
1 march, mon
mon100:00−7nnw4687100 0.1 1021562
03:00−8nnw3588100 0.1 1022510
06:00−8nnw369091 0.0 1023418
09:00−8n468590 0.1 1025555
12:00−6n4576100 0.0 1026623
15:00−5nnw3472100 0.0 1027666
18:00−7n358153 0.0 1028437
21:00−8n238727 0.0 1029202
2 march, tue
tue200:00−8wnw22890 0.0 102967
03:00−8wsw369220 0.0 1028161
06:00−7wsw51089100 0.0 1027288
09:00−5wsw61185100 0.0 1025419
12:00−2wsw71283100 0.0 1023593
15:00−1wsw71295100 0.8 1020677
18:000w71398100 1.5 1017616
21:000wnw61297100 2.6 1016510